Hourly Weather Roundup
Issued by NWS Central Illinois

Home | Current Version | Previous Version | Text Only | Print | Product List | Glossary On
Versions: 1 2 3 4 5 6 7 8 9 10 11 12 13 14 15 16 17 18 19 20 21 22 23 24 25 26 27 28 29 30 31 32 33 34 35 36 37 38 39 40 41 42 43 44 45 46 47 48 49 50
000
NZUS43 KILX 021810
HWRILX
AREA WEATHER ROUNDUP
NATIONAL WEATHER SERVICE, LINCOLN IL
100 PM CDT TUE JUN 02 2015


CITY           SKY/WX    TMP DP  RH WIND       PRES   REMARKS
BLOOMINGTON    SUNNY     68  51  54 SE13      30.14F
6HR MIN TEMP:  53; 6HR MAX TEMP:  69; 6HR PCP: TRACE;

CHAMPAIGN      SUNNY     69  53  56 NE10      30.13F
6HR MIN TEMP:  55; 6HR MAX TEMP:  69;

DANVILLE       MOSUNNY   66  53  62 E9        30.11F
6HR MIN TEMP:  52; 6HR MAX TEMP:  67;

DECATUR        SUNNY     69  54  58 E10       30.12F
6HR MIN TEMP:  55; 6HR MAX TEMP:  69;

EFFINGHAM      PTSUNNY   65  52  62 E5        30.14S
FLORA          SUNNY     61  54  75 E6        30.14S
6HR MIN TEMP:  57; 6HR MAX TEMP:  61;

GALESBURG      CLOUDY    68  52  55 SE6       30.12F
JACKSONVILLE   MOSUNNY   70  53  56 E7        30.12F
6HR MIN TEMP:  59; 6HR MAX TEMP:  71;

LACON          SUNNY     69  47  45 S5        30.12F
6HR MIN TEMP:  48; 6HR MAX TEMP:  69;

LAWRENCEVILLE  CLOUDY    64  54  69 VRB3      30.13F
6HR MIN TEMP:  56; 6HR MAX TEMP:  65;

LITCHFIELD     MOSUNNY   67  54  62 E6        30.11F
$$


CITY           SKY/WX    TMP DP  RH WIND       PRES   REMARKS
LINCOLN        SUNNY     69  49  48 E6        30.10F
6HR MIN TEMP:  55; 6HR MAX TEMP:  69;

MACOMB         PTSUNNY   69  52  54 SE6       30.14F
MATTOON        MOSUNNY   69  54  58 VRB7      30.11F
6HR MIN TEMP:  53; 6HR MAX TEMP:  69;

MT CARMEL AP   CLOUDY    63  54  72 N5        30.13F
OLNEY-NOBLE AP CLOUDY    59  54  82 NE5       30.14S
PARIS          SUNNY     69  54  57 E9        30.13S
6HR MIN TEMP:  53; 6HR MAX TEMP:  69;

PEORIA         SUNNY     72  50  45 E12       30.12F
6HR MIN TEMP:  54; 6HR MAX TEMP:  72;

PONTIAC        SUNNY     69  51  53 E9        30.14F
RANTOUL        SUNNY     70  49  48 E7        30.13F
6HR MIN TEMP:  55; 6HR MAX TEMP:  70;

ROBINSON       MOSUNNY   66  55  67 E7        30.13F
6HR MIN TEMP:  55; 6HR MAX TEMP:  66;

SPRINGFIELD    SUNNY     71  50  47 E9G17     30.12F
6HR MIN TEMP:  58; 6HR MAX TEMP:  72;

TAYLORVILLE    MOSUNNY   66  54  63 E9G18     30.11F
$$

...REGIONAL REPORTS...


CITY           SKY/WX    TMP DP  RH WIND       PRES   REMARKS
CHICAGO O`HARE MOSUNNY   68  44  42 E10       30.14F
KANKAKEE       SUNNY     67  49  53 E12       30.15F
MOLINE         MOSUNNY   71  50  47 SE8       30.11F
MOUNT VERNON   CLOUDY    63  54  72 N3        30.13F
PITTSFIELD     CLOUDY    69  54  58 E6        30.13S
QUINCY         CLOUDY    68  52  56 SE8       30.11F
ROCKFORD       MOSUNNY   70  46  42 SE12G21   30.14F
$$


CITY           SKY/WX    TMP DP  RH WIND       PRES   REMARKS
BURLINGTON     PTSUNNY   69  54  58 S10       30.11F
CEDAR RAPIDS   MOSUNNY   70  53  54 S9        30.09F
DES MOINES     CLOUDY    67  54  63 SE21      30.06F
KIRKSVILLE     CLOUDY    68  57  68 SE13      30.10F
OTTUMWA        CLOUDY    67  55  65 S12       30.08S
ST LOUIS       PTSUNNY   70  53  54 E8        30.11F
$$


CITY           SKY/WX    TMP DP  RH WIND       PRES   REMARKS
TERRE HAUTE    MOSUNNY   70  56  61 E8        30.12F
EVANSVILLE     CLOUDY    63  55  75 NE6       30.12F HAZE
INDIANAPOLIS   MOSUNNY   66  51  58 NE9       30.12F
LAFAYETTE      MOSUNNY   66  52  60 E9        30.14F
MADISON        MOSUNNY   69  46  43 S13       30.12F
MILWAUKEE      MOSUNNY   62  45  53 SE9       30.17F
$$




USA.gov is the U.S. government's official web portal to all federal, state and local government web resources and services.